,,Stat5,,Stat1,,Stat2,,Stat3,,Stat4,,Wind1,,Wind1,
time,status,PA1M_AVG,status,PR1M_SUM,status,RH1M_AVG,status,SR1M_AVG,status,TA1M_AVG,status,W1dAve1m,status,W1sAve1m,
2001-11-26, 00:00:00,VALID,918.21,VALID,0,VALID,97.3744,VALID,0,VALID,18.9779,VALID,83,VALID,0.218539,
2001-11-26, 00:01:00,VALID,918.225,VALID,0,VALID,97.438,VALID,0.0169808,VALID,18.968,VALID,55,VALID,0.277961,
2001-11-26, 00:02:00,VALID,918.223,VALID,0,VALID,97.5155,VALID,0,VALID,18.9814,VALID,55,VALID,0.335304,
2001-11-26, 00:03:00,VALID,918.236,VALID,0,VALID,97.6325,VALID,0,VALID,18.9841,VALID,54,VALID,0.177539,
2001-11-26, 00:04:00,VALID,918.225,VALID,0,VALID,97.6605,VALID,-0.0169808,VALID,19.0104,VALID,54,VALID,0,
2001-11-26, 00:05:00,VALID,918.216,VALID,0,VALID,97.7177,VALID,-0.101885,VALID,18.9885,VALID,54,VALID,0.0271382,
2001-11-26, 00:06:00,VALID,918.216,VALID,0,VALID,97.7711,VALID,-0.0849042,VALID,19.0153,VALID,53,VALID,0.127111,
2001-11-26, 00:07:00,VALID,918.2,VALID,0,VALID,97.7749,VALID,-0.101885,VALID,18.9922,VALID,49,VALID,0.0641026,
2001-11-26, 00:08:00,VALID,918.197,VALID,0,VALID,97.719,VALID,-0.101885,VALID,18.9922,VALID,49,VALID,0.00460737,
2001-11-26, 00:09:00,VALID,918.203,VALID,0,VALID,97.6936,VALID,-0.118866,VALID,18.9788,VALID,49,VALID,0.00620404,
2001-11-26, 00:10:00,VALID,918.184,VALID,0,VALID,97.7076,VALID,-0.101885,VALID,18.986,VALID,49,VALID,0,
2001-11-26, 00:11:00,VALID,918.143,VALID,0,VALID,97.7406,VALID,-0.101885,VALID,18.9922,VALID,49,VALID,0,
2001-11-26, 00:12:00,VALID,918.106,VALID,0,VALID,97.7114,VALID,-0.101885,VALID,19.0089,VALID,49,VALID,0,
2001-11-26, 00:13:00,VALID,918.076,VALID,0,VALID,97.7025,VALID,-0.101885,VALID,19.0024,VALID,49,VALID,0.0449219,
2001-11-26, 00:14:00,VALID,918.055,VALID,0,VALID,97.513,VALID,-0.0849042,VALID,18.9992,VALID,68,VALID,0.431127,
2001-11-26, 00:15:00,VALID,918.021,VALID,0,VALID,97.1023,VALID,-0.101885,VALID,18.9599,VALID,82,VALID,0.574219,
2001-11-26, 00:16:00,VALID,918.014,VALID,0,VALID,96.8441,VALID,-0.118866,VALID,18.9634,VALID,96,VALID,0.577908,
2001-11-26, 00:17:00,VALID,917.997,VALID,0,VALID,96.6534,VALID,-0.118866,VALID,18.9828,VALID,97,VALID,0.515179,
2001-11-26, 00:18:00,VALID,917.991,VALID,0,VALID,96.6508,VALID,-0.101885,VALID,19.0116,VALID,122,VALID,0.660979,
2001-11-26, 00:19:00,VALID,917.986,VALID,0,VALID,96.9077,VALID,-0.0849042,VALID,19.0469,VALID,139,VALID,0.647837,
2001-11-26, 00:20:00,VALID,917.973,VALID,0,VALID,97.0603,VALID,0,VALID,19.0812,VALID,136,VALID,0.62207,
2001-11-26, 00:21:00,VALID,917.955,VALID,0,VALID,97.19,VALID,0,VALID,19.1073,VALID,109,VALID,0.694285,
2001-11-26, 00:22:00,VALID,917.937,VALID,0,VALID,97.3235,VALID,0,VALID,19.1073,VALID,123,VALID,1.03906,
2001-11-26, 00:23:00,VALID,917.927,VALID,0,VALID,97.4354,VALID,0,VALID,19.0969,VALID,122,VALID,0.964143,
2001-11-26, 00:24:00,VALID,917.92,VALID,0,VALID,97.5257,VALID,0,VALID,19.0912,VALID,117,VALID,0.196314,
2001-11-26, 00:25:00,VALID,917.903,VALID,0,VALID,97.6071,VALID,0.0169808,VALID,19.0716,VALID,126,VALID,0.476362,
2001-11-26, 00:26:00,VALID,917.911,VALID,0,VALID,97.5639,VALID,0,VALID,19.0519,VALID,155,VALID,0.71921,
2001-11-26, 00:27:00,VALID,917.924,VALID,0,VALID,97.5257,VALID,0,VALID,19.0328,VALID,156,VALID,0.620117,
2001-11-26, 00:28:00,VALID,917.908,VALID,0,VALID,97.6007,VALID,0.0339617,VALID,19.003,VALID,138,VALID,0.769942,
2001-11-26, 00:29:00,VALID,917.903,VALID,0,VALID,97.5944,VALID,0,VALID,19.0099,VALID,137,VALID,0.800564,
2001-11-26, 00:30:00,VALID,917.903,VALID,0,VALID,97.5613,VALID,0,VALID,19.0037,VALID,131,VALID,0.870144,
2001-11-26, 00:31:00,VALID,917.894,VALID,0,VALID,97.5944,VALID,-0.0169808,VALID,18.9878,VALID,110,VALID,0.61102,
2001-11-26, 00:32:00,VALID,917.859,VALID,0,VALID,97.5867,VALID,0,VALID,18.9749,VALID,102,VALID,1.14475,
2001-11-26, 00:33:00,VALID,917.857,VALID,0,VALID,97.5931,VALID,0,VALID,18.9555,VALID,118,VALID,0.876689,
2001-11-26, 00:34:00,VALID,917.852,VALID,0,VALID,97.5982,VALID,0,VALID,18.9227,VALID,104,VALID,0.988932,
2001-11-26, 00:35:00,VALID,917.882,VALID,0,VALID,97.6605,VALID,-0.0339617,VALID,18.9235,VALID,101,VALID,1.022,
2001-11-26, 00:36:00,VALID,917.899,VALID,0,VALID,97.6465,VALID,-0.0169808,VALID,18.9299,VALID,116,VALID,1.2084,
2001-11-26, 00:37:00,VALID,917.864,VALID,0,VALID,97.7025,VALID,0,VALID,18.9297,VALID,84,VALID,0.904535,
2001-11-26, 00:38:00,VALID,917.807,VALID,0,VALID,97.7584,VALID,0,VALID,18.9359,VALID,48,VALID,0.937695,
2001-11-26, 00:39:00,VALID,917.784,VALID,0,VALID,97.7546,VALID,0,VALID,18.9391,VALID,75,VALID,0.476151,
2001-11-26, 00:40:00,VALID,917.745,VALID,0,VALID,97.7966,VALID,0,VALID,18.9493,VALID,99,VALID,0.660262,
2001-11-26, 00:41:00,VALID,917.734,VALID,0,VALID,97.7889,VALID,0,VALID,18.9458,VALID,127,VALID,0.629687,
2001-11-26, 00:42:00,VALID,917.714,VALID,0,VALID,97.7648,VALID,0,VALID,18.9232,VALID,105,VALID,0.889391,
2001-11-26, 00:43:00,VALID,917.692,VALID,0,VALID,97.719,VALID,-0.0169808,VALID,18.9133,VALID,117,VALID,0.874107,
2001-11-26, 00:44:00,VALID,917.689,VALID,0,VALID,97.6389,VALID,0,VALID,18.9135,VALID,125,VALID,0.534054,
2001-11-26, 00:45:00,VALID,917.683,VALID,0,VALID,97.5842,VALID,0,VALID,18.9135,VALID,125,VALID,0.336589,
2001-11-26, 00:46:00,VALID,917.665,VALID,0,VALID,97.5829,VALID,0,VALID,18.9168,VALID,136,VALID,0.449535,
2001-11-26, 00:47:00,VALID,917.639,VALID,0,VALID,97.5181,VALID,0.0169808,VALID,18.923,VALID,155,VALID,0.251402,
2001-11-26, 00:48:00,VALID,917.617,VALID,0,VALID,97.5117,VALID,-0.0169808,VALID,18.9262,VALID,155,VALID,0.154811,
2001-11-26, 00:49:00,VALID,917.59,VALID,0,VALID,97.5232,VALID,0.0169808,VALID,18.9294,VALID,155,VALID,0.0164474,
2001-11-26, 00:50:00,VALID,917.566,VALID,0,VALID,97.5626,VALID,-0.0169808,VALID,18.9491,VALID,155,VALID,0.0536318,
2001-11-26, 00:51:00,VALID,917.53,VALID,0,VALID,97.5753,VALID,-0.0169808,VALID,18.9523,VALID,145,VALID,0.370226,
2001-11-26, 00:52:00,VALID,917.504,VALID,0,VALID,97.5944,VALID,0,VALID,18.9428,VALID,114,VALID,0.176943,
2001-11-26, 00:53:00,VALID,917.48,VALID,0,VALID,97.6516,VALID,0,VALID,18.9389,VALID,92,VALID,0.099301,
2001-11-26, 00:54:00,VALID,917.459,VALID,0,VALID,97.7063,VALID,-0.0169808,VALID,18.9357,VALID,92,VALID,0.0164263,
2001-11-26, 00:55:00,VALID,917.437,VALID,0,VALID,97.663,VALID,0,VALID,18.9361,VALID,92,VALID,0,
2001-11-26, 00:56:00,VALID,917.427,VALID,0,VALID,97.6948,VALID,0,VALID,18.9071,VALID,92,VALID,0,
2001-11-26, 00:57:00,VALID,917.405,VALID,0,VALID,97.7521,VALID,0,VALID,18.8976,VALID,92,VALID,0.0694901,
2001-11-26, 00:58:00,VALID,917.409,VALID,0,VALID,97.8245,VALID,0,VALID,18.8909,VALID,92,VALID,0.372396,
2001-11-26, 00:59:00,VALID,917.398,VALID,0,VALID,97.883,VALID,0,VALID,18.8778,VALID,73,VALID,0.503606,
2001-11-26, 01:00:00,VALID,917.367,VALID,0,VALID,97.9644,VALID,0,VALID,18.8815,VALID,58,VALID,0.306985,
2001-11-26, 01:01:00,VALID,917.352,VALID,0,VALID,98.042,VALID,0,VALID,18.8909,VALID,44,VALID,0.298314,
2001-11-26, 01:02:00,VALID,917.341,VALID,0,VALID,98.0992,VALID,0,VALID,18.8775,VALID,32,VALID,0.360853,
2001-11-26, 01:03:00,VALID,917.341,VALID,0,VALID,98.1463,VALID,-0.0169808,VALID,18.8778,VALID,29,VALID,0.452908,
2001-11-26, 01:04:00,VALID,917.321,VALID,0,VALID,98.1984,VALID,-0.0339617,VALID,18.8812,VALID,29,VALID,0.391493,
2001-11-26, 01:05:00,VALID,917.327,VALID,0,VALID,98.2353,VALID,-0.0169808,VALID,18.8847,VALID,28,VALID,0.384046,
2001-11-26, 01:06:00,VALID,917.331,VALID,0,VALID,98.2225,VALID,0,VALID,18.8648,VALID,26,VALID,0.388158,
2001-11-26, 01:07:00,VALID,917.318,VALID,0,VALID,98.2022,VALID,0,VALID,18.8395,VALID,26,VALID,0.325955,
2001-11-26, 01:08:00,VALID,917.301,VALID,0,VALID,98.2187,VALID,0,VALID,18.8365,VALID,26,VALID,0.269196,
2001-11-26, 01:09:00,VALID,917.298,VALID,0,VALID,98.2721,VALID,-0.0169808,VALID,18.827,VALID,26,VALID,0.0374178,
2001-11-26, 01:10:00,VALID,917.285,VALID,0,VALID,98.3116,VALID,0,VALID,18.8199,VALID,26,VALID,0,
2001-11-26, 01:11:00,VALID,917.27,VALID,0,VALID,98.3306,VALID,0,VALID,18.8102,VALID,26,VALID,0.0375,
2001-11-26, 01:12:00,VALID,917.248,VALID,0,VALID,98.3484,VALID,-0.0339617,VALID,18.8238,VALID,26,VALID,0.374794,
2001-11-26, 01:13:00,VALID,917.244,VALID,0,VALID,98.3688,VALID,-0.0169808,VALID,18.7945,VALID,24,VALID,0.715461,
2001-11-26, 01:14:00,VALID,917.223,VALID,0,VALID,98.3535,VALID,-0.0339617,VALID,18.7779,VALID,19,VALID,1.04127,
2001-11-26, 01:15:00,VALID,917.202,VALID,0,VALID,98.3141,VALID,-0.0339617,VALID,18.7585,VALID,24,VALID,0.880008,
2001-11-26, 01:16:00,VALID,917.184,VALID,0,VALID,98.2772,VALID,0,VALID,18.7391,VALID,29,VALID,0.714744,
2001-11-26, 01:17:00,VALID,917.159,VALID,0,VALID,98.2632,VALID,0,VALID,18.7297,VALID,29,VALID,0.561811,
2001-11-26, 01:18:00,VALID,917.143,VALID,0,VALID,98.2556,VALID,0,VALID,18.7133,VALID,34,VALID,0.528711,
2001-11-26, 01:19:00,VALID,917.152,VALID,0,VALID,98.2225,VALID,-0.0169808,VALID,18.6971,VALID,34,VALID,0.40191,
2001-11-26, 01:20:00,VALID,917.151,VALID,0,VALID,98.2238,VALID,0,VALID,18.6941,VALID,34,VALID,0.212457,
2001-11-26, 01:21:00,VALID,917.14,VALID,0,VALID,98.2289,VALID,0,VALID,18.6944,VALID,34,VALID,0.172086,
2001-11-26, 01:22:00,VALID,917.183,VALID,0,VALID,98.2569,VALID,-0.0509425,VALID,18.7043,VALID,34,VALID,0,
2001-11-26, 01:23:00,VALID,917.175,VALID,0,VALID,98.2645,VALID,-0.0169808,VALID,18.7073,VALID,30,VALID,0,
2001-11-26, 01:24:00,VALID,917.158,VALID,0,VALID,98.2887,VALID,0,VALID,18.7103,VALID,16,VALID,0.186444,
2001-11-26, 01:25:00,VALID,917.125,VALID,0,VALID,98.2493,VALID,-0.0339617,VALID,18.7271,VALID,326,VALID,0.360026,
2001-11-26, 01:26:00,VALID,917.126,VALID,0,VALID,98.248,VALID,-0.0679233,VALID,18.7237,VALID,292,VALID,0.0542763,
2001-11-26, 01:27:00,VALID,917.106,VALID,0,VALID,98.2543,VALID,-0.0509425,VALID,18.7038,VALID,292,VALID,0.0073902,
2001-11-26, 01:28:00,VALID,917.103,VALID,0,VALID,98.2683,VALID,0,VALID,18.7204,VALID,295,VALID,0,
2001-11-26, 01:29:00,VALID,917.087,VALID,0,VALID,98.281,VALID,0,VALID,18.7063,VALID,301,VALID,0,
2001-11-26, 01:30:00,VALID,917.077,VALID,0,VALID,98.295,VALID,-0.0509425,VALID,18.7071,VALID,320,VALID,0.0252878,
2001-11-26, 01:31:00,VALID,917.084,VALID,0,VALID,98.3332,VALID,-0.0509425,VALID,18.7234,VALID,3,VALID,0.279983,
2001-11-26, 01:32:00,VALID,917.068,VALID,0,VALID,98.3739,VALID,0,VALID,18.7197,VALID,3,VALID,0.0943359,
2001-11-26, 01:33:00,VALID,917.06,VALID,0,VALID,98.3853,VALID,0.0169808,VALID,18.7294,VALID,352,VALID,0,
2001-11-26, 01:34:00,VALID,917.08,VALID,0,VALID,98.3739,VALID,0,VALID,18.7232,VALID,337,VALID,0,
2001-11-26, 01:35:00,VALID,917.063,VALID,0,VALID,98.3777,VALID,-0.0169808,VALID,18.7135,VALID,343,VALID,0,
2001-11-26, 01:36:00,VALID,917.033,VALID,0,VALID,98.3802,VALID,-0.0509425,VALID,18.7103,VALID,37,VALID,0.0761719,
2001-11-26, 01:37:00,VALID,917.014,VALID,0,VALID,98.3853,VALID,-0.0169808,VALID,18.7105,VALID,37,VALID,0.0413851,
2001-11-26, 01:38:00,VALID,917.027,VALID,0,VALID,98.4158,VALID,-0.0169808,VALID,18.7108,VALID,37,VALID,0,
2001-11-26, 01:39:00,VALID,917.022,VALID,0,VALID,98.4184,VALID,-0.0339617,VALID,18.7071,VALID,37,VALID,0,
2001-11-26, 01:40:00,VALID,917.021,VALID,0,VALID,98.4171,VALID,-0.0339617,VALID,18.6974,VALID,37,VALID,0,
2001-11-26, 01:41:00,VALID,917.003,VALID,0,VALID,98.4247,VALID,-0.0169808,VALID,18.6941,VALID,37,VALID,0,
2001-11-26, 01:42:00,VALID,916.992,VALID,0,VALID,98.4184,VALID,-0.0169808,VALID,18.6941,VALID,37,VALID,0.246962,
2001-11-26, 01:43:00,VALID,916.96,VALID,0,VALID,98.4044,VALID,0,VALID,18.678,VALID,37,VALID,0.664274,
2001-11-26, 01:44:00,VALID,916.948,VALID,0,VALID,98.4171,VALID,-0.0169808,VALID,18.6551,VALID,37,VALID,0.682977,
2001-11-26, 01:45:00,VALID,916.945,VALID,0,VALID,98.4425,VALID,0,VALID,18.6519,VALID,31,VALID,0.722356,
2001-11-26, 01:46:00,VALID,916.933,VALID,0,VALID,98.4527,VALID,-0.0169808,VALID,18.6556,VALID,28,VALID,0.634215,
2001-11-26, 01:47:00,VALID,916.917,VALID,0,VALID,98.4438,VALID,-0.0169808,VALID,18.6595,VALID,28,VALID,0.570524,
2001-11-26, 01:48:00,VALID,916.909,VALID,0,VALID,98.4616,VALID,-0.0339617,VALID,18.6524,VALID,28,VALID,0.514391,
2001-11-26, 01:49:00,VALID,916.896,VALID,0,VALID,98.5087,VALID,0,VALID,18.6748,VALID,28,VALID,0.201122,
2001-11-26, 01:50:00,VALID,916.871,VALID,0,VALID,98.543,VALID,0.0509425,VALID,18.693,VALID,28,VALID,0.0386619,
2001-11-26, 01:51:00,VALID,916.851,VALID,0,VALID,98.5697,VALID,0.0849042,VALID,18.6992,VALID,28,VALID,0.152114,
2001-11-26, 01:52:00,VALID,916.848,VALID,0,VALID,98.5468,VALID,0.101885,VALID,18.7022,VALID,28,VALID,0,
2001-11-26, 01:53:00,VALID,916.828,VALID,0,VALID,98.5392,VALID,0.0849042,VALID,18.6992,VALID,28,VALID,0,
2001-11-26, 01:54:00,VALID,916.806,VALID,0,VALID,98.5494,VALID,0.101885,VALID,18.6957,VALID,28,VALID,0.0733507,
2001-11-26, 01:55:00,VALID,916.794,VALID,0,VALID,98.5837,VALID,0.0679233,VALID,18.725,VALID,28,VALID,0.242622,
2001-11-26, 01:56:00,VALID,916.769,VALID,0,VALID,98.5811,VALID,0.101885,VALID,18.728,VALID,28,VALID,0.147204,
2001-11-26, 01:57:00,VALID,916.771,VALID,0,VALID,98.5392,VALID,0.101885,VALID,18.7248,VALID,28,VALID,0,
2001-11-26, 01:58:00,VALID,916.754,VALID,0,VALID,98.4883,VALID,0.101885,VALID,18.7188,VALID,28,VALID,0,
2001-11-26, 01:59:00,VALID,916.737,VALID,0,VALID,98.4413,VALID,0.101885,VALID,18.7218,VALID,28,VALID,0.0875,
2001-11-26, 02:00:00,VALID,916.724,VALID,0,VALID,98.4235,VALID,0.101885,VALID,18.7509,VALID,28,VALID,0.502878,
2001-11-26, 02:01:00,VALID,916.721,VALID,0,VALID,98.4222,VALID,0.0849042,VALID,18.7931,VALID,28,VALID,0.688101,
2001-11-26, 02:02:00,VALID,916.723,VALID,0,VALID,98.3929,VALID,0.0849042,VALID,18.8249,VALID,25,VALID,0.557031,
2001-11-26, 02:03:00,VALID,916.714,VALID,0,VALID,98.3523,VALID,0.0849042,VALID,18.851,VALID,25,VALID,0.497738,
2001-11-26, 02:04:00,VALID,916.692,VALID,0,VALID,98.2531,VALID,0.0849042,VALID,18.8512,VALID,24,VALID,0.614515,
2001-11-26, 02:05:00,VALID,916.671,VALID,0,VALID,98.1335,VALID,-0.0169808,VALID,18.8429,VALID,21,VALID,0.428285,
2001-11-26, 02:06:00,VALID,916.656,VALID,0,VALID,98.0928,VALID,0,VALID,18.8526,VALID,20,VALID,0.365184,
2001-11-26, 02:07:00,VALID,916.664,VALID,0,VALID,98.0407,VALID,-0.0339617,VALID,18.8626,VALID,20,VALID,0.3752,
2001-11-26, 02:08:00,VALID,916.638,VALID,0,VALID,97.9784,VALID,-0.0339617,VALID,18.8722,VALID,20,VALID,0.237822,
2001-11-26, 02:09:00,VALID,916.629,VALID,0,VALID,97.9975,VALID,0,VALID,18.8946,VALID,20,VALID,0,
2001-11-26, 02:10:00,VALID,916.618,VALID,0,VALID,97.9542,VALID,-0.0339617,VALID,18.908,VALID,21,VALID,0,
2001-11-26, 02:11:00,VALID,916.63,VALID,0,VALID,97.8563,VALID,-0.0169808,VALID,18.9006,VALID,20,VALID,0,
2001-11-26, 02:12:00,VALID,916.627,VALID,0,VALID,97.864,VALID,0,VALID,18.9145,VALID,20,VALID,0,
2001-11-26, 02:13:00,VALID,916.618,VALID,0,VALID,97.8589,VALID,-0.0339617,VALID,18.9142,VALID,20,VALID,0,
2001-11-26, 02:14:00,VALID,916.609,VALID,0,VALID,97.8805,VALID,-0.0509425,VALID,18.9373,VALID,20,VALID,0,
2001-11-26, 02:15:00,VALID,916.581,VALID,0,VALID,97.8818,VALID,-0.0339617,VALID,18.9235,VALID,20,VALID,0,
2001-11-26, 02:16:00,VALID,916.578,VALID,0,VALID,97.8983,VALID,-0.0509425,VALID,18.947,VALID,21,VALID,0,
2001-11-26, 02:17:00,VALID,916.573,VALID,0,VALID,97.8792,VALID,0,VALID,18.9334,VALID,21,VALID,0.0265214,
2001-11-26, 02:18:00,VALID,916.534,VALID,0,VALID,97.9364,VALID,-0.0169808,VALID,18.9361,VALID,21,VALID,0.211571,
2001-11-26, 02:19:00,VALID,916.529,VALID,0,VALID,97.9682,VALID,-0.0169808,VALID,18.9592,VALID,21,VALID,0.0573552,
2001-11-26, 02:20:00,VALID,916.542,VALID,0,VALID,97.9733,VALID,0,VALID,18.9461,VALID,21,VALID,0,
2001-11-26, 02:21:00,VALID,916.552,VALID,0,VALID,98.0407,VALID,-0.0169808,VALID,18.956,VALID,20,VALID,0,
2001-11-26, 02:22:00,VALID,916.551,VALID,0,VALID,98.0801,VALID,0,VALID,18.9689,VALID,7,VALID,0.0692568,
2001-11-26, 02:23:00,VALID,916.538,VALID,0,VALID,98.0191,VALID,-0.0679233,VALID,18.9493,VALID,344,VALID,0.226953,
2001-11-26, 02:24:00,VALID,916.509,VALID,0.2,VALID,97.8881,VALID,-0.0509425,VALID,18.9205,VALID,354,VALID,0.290913,
2001-11-26, 02:25:00,VALID,916.479,VALID,0,VALID,97.883,VALID,-0.0339617,VALID,18.9237,VALID,23,VALID,0.594866,
2001-11-26, 02:26:00,VALID,916.443,VALID,0,VALID,97.9352,VALID,-0.0169808,VALID,18.9463,VALID,20,VALID,0.557492,
2001-11-26, 02:27:00,VALID,916.422,VALID,0,VALID,97.8958,VALID,-0.0509425,VALID,18.9495,VALID,19,VALID,0.468099,
2001-11-26, 02:28:00,VALID,916.416,VALID,0,VALID,97.8538,VALID,-0.0169808,VALID,18.9329,VALID,17,VALID,0.343961,
2001-11-26, 02:29:00,VALID,916.42,VALID,0,VALID,97.766,VALID,-0.0679233,VALID,18.9205,VALID,346,VALID,0.476563,
2001-11-26, 02:30:00,VALID,916.396,VALID,0,VALID,97.6732,VALID,-0.0169808,VALID,18.8981,VALID,344,VALID,0.254934,
2001-11-26, 02:31:00,VALID,916.389,VALID,0,VALID,97.677,VALID,-0.0169808,VALID,18.8748,VALID,360,VALID,0.234992,
2001-11-26, 02:32:00,VALID,916.362,VALID,0,VALID,97.7241,VALID,-0.0339617,VALID,18.8914,VALID,32,VALID,0.20038,
2001-11-26, 02:33:00,VALID,916.341,VALID,0,VALID,97.7063,VALID,-0.0339617,VALID,18.8815,VALID,33,VALID,0.0633681,
2001-11-26, 02:34:00,VALID,916.324,VALID,0,VALID,97.6389,VALID,-0.0509425,VALID,18.8653,VALID,35,VALID,0.0857264,
2001-11-26, 02:35:00,VALID,916.321,VALID,0,VALID,97.6427,VALID,-0.0169808,VALID,18.8658,VALID,166,VALID,0.478824,
2001-11-26, 02:36:00,VALID,916.305,VALID,0,VALID,97.6478,VALID,-0.0169808,VALID,18.8561,VALID,172,VALID,0.509215,
2001-11-26, 02:37:00,VALID,916.3,VALID,0,VALID,97.6948,VALID,-0.0339617,VALID,18.8494,VALID,170,VALID,0.649239,
2001-11-26, 02:38:00,VALID,916.279,VALID,0,VALID,97.7648,VALID,-0.0509425,VALID,18.8496,VALID,161,VALID,0.684333,
2001-11-26, 02:39:00,VALID,916.266,VALID,0,VALID,97.7978,VALID,-0.0169808,VALID,18.8556,VALID,192,VALID,0.404605,
2001-11-26, 02:40:00,VALID,916.254,VALID,0,VALID,97.7826,VALID,-0.0169808,VALID,18.8651,VALID,201,VALID,0.410056,
2001-11-26, 02:41:00,VALID,916.264,VALID,0,VALID,97.7444,VALID,0,VALID,18.8849,VALID,200,VALID,0.282051,
2001-11-26, 02:42:00,VALID,916.259,VALID,0,VALID,97.677,VALID,0,VALID,18.9075,VALID,182,VALID,0.18704,
2001-11-26, 02:43:00,VALID,916.272,VALID,0,VALID,97.6096,VALID,0,VALID,18.9103,VALID,182,VALID,0.00164474,
2001-11-26, 02:44:00,VALID,916.243,VALID,0,VALID,97.6198,VALID,0,VALID,18.9232,VALID,181,VALID,0,
2001-11-26, 02:45:00,VALID,916.247,VALID,0,VALID,97.6363,VALID,-0.0509425,VALID,18.95,VALID,181,VALID,0,
2001-11-26, 02:46:00,VALID,916.246,VALID,0,VALID,97.691,VALID,-0.0169808,VALID,18.9461,VALID,96,VALID,0.162977,
2001-11-26, 02:47:00,VALID,916.243,VALID,0,VALID,97.7444,VALID,-0.0169808,VALID,18.9629,VALID,18,VALID,0.414679,
2001-11-26, 02:48:00,VALID,916.254,VALID,0,VALID,97.7559,VALID,0,VALID,18.956,VALID,18,VALID,0.3125,
2001-11-26, 02:49:00,VALID,916.265,VALID,0,VALID,97.7966,VALID,0,VALID,18.9396,VALID,18,VALID,0.161892,
2001-11-26, 02:50:00,VALID,916.271,VALID,0,VALID,97.8589,VALID,-0.0509425,VALID,18.9431,VALID,45,VALID,0.219866,
2001-11-26, 02:51:00,VALID,916.27,VALID,0,VALID,97.9542,VALID,-0.0339617,VALID,18.9498,VALID,35,VALID,0.575041,
2001-11-26, 02:52:00,VALID,916.258,VALID,0,VALID,97.9949,VALID,-0.0169808,VALID,18.9532,VALID,36,VALID,0.570913,
2001-11-26, 02:53:00,VALID,916.244,VALID,0,VALID,98.0598,VALID,-0.0169808,VALID,18.9458,VALID,36,VALID,0.220117,
2001-11-26, 02:54:00,VALID,916.239,VALID,0,VALID,98.0878,VALID,0,VALID,18.9532,VALID,37,VALID,0.283717,
2001-11-26, 02:55:00,VALID,916.236,VALID,0,VALID,98.1056,VALID,-0.0169808,VALID,18.9165,VALID,40,VALID,0.516242,
2001-11-26, 02:56:00,VALID,916.212,VALID,0,VALID,98.1793,VALID,0,VALID,18.9232,VALID,38,VALID,0.583133,
2001-11-26, 02:57:00,VALID,916.209,VALID,0,VALID,98.2556,VALID,0,VALID,18.9297,VALID,47,VALID,0.593349,
2001-11-26, 02:58:00,VALID,916.208,VALID,0,VALID,98.2683,VALID,0,VALID,18.9135,VALID,50,VALID,0.782452,
2001-11-26, 02:59:00,VALID,916.197,VALID,0,VALID,98.2683,VALID,0,VALID,18.8976,VALID,36,VALID,0.617647,
2001-11-26, 03:00:00,VALID,916.195,VALID,0,VALID,98.3128,VALID,-0.0169808,VALID,18.9075,VALID,32,VALID,0.4375,
2001-11-26, 03:01:00,VALID,916.21,VALID,0,VALID,98.2925,VALID,-0.0169808,VALID,18.8981,VALID,24,VALID,0.625434,
2001-11-26, 03:02:00,VALID,916.214,VALID,0,VALID,98.2518,VALID,-0.0169808,VALID,18.872,VALID,10,VALID,0.792101,
2001-11-26, 03:03:00,VALID,916.238,VALID,0,VALID,98.2289,VALID,0,VALID,18.8556,VALID,3,VALID,0.893792,
2001-11-26, 03:04:00,VALID,916.26,VALID,0,VALID,98.1933,VALID,0,VALID,18.8337,VALID,357,VALID,0.798931,
2001-11-26, 03:05:00,VALID,916.303,VALID,0,VALID,98.1628,VALID,-0.0339617,VALID,18.8044,VALID,290,VALID,0.455512,
2001-11-26, 03:06:00,VALID,916.329,VALID,0,VALID,98.2238,VALID,0,VALID,18.8106,VALID,239,VALID,0.0181588,
2001-11-26, 03:07:00,VALID,916.344,VALID,0,VALID,98.2696,VALID,-0.0169808,VALID,18.8141,VALID,236,VALID,0.210503,
2001-11-26, 03:08:00,VALID,916.324,VALID,0.2,VALID,98.3167,VALID,0,VALID,18.8367,VALID,220,VALID,0.237459,
2001-11-26, 03:09:00,VALID,916.315,VALID,0,VALID,98.3891,VALID,0,VALID,18.8367,VALID,222,VALID,0.287162,
2001-11-26, 03:10:00,VALID,916.271,VALID,0,VALID,98.4146,VALID,0,VALID,18.8526,VALID,189,VALID,0.164634,
2001-11-26, 03:11:00,VALID,916.255,VALID,0.2,VALID,98.4286,VALID,-0.0169808,VALID,18.8556,VALID,161,VALID,0.425977,
2001-11-26, 03:12:00,VALID,916.259,VALID,0,VALID,98.4298,VALID,0,VALID,18.8395,VALID,178,VALID,0.487048,
2001-11-26, 03:13:00,VALID,916.281,VALID,0,VALID,98.4565,VALID,-0.0339617,VALID,18.8266,VALID,207,VALID,0.13239,
2001-11-26, 03:14:00,VALID,916.323,VALID,0,VALID,98.5087,VALID,0,VALID,18.8268,VALID,260,VALID,0.579102,
2001-11-26, 03:15:00,VALID,916.35,VALID,0,VALID,98.5379,VALID,0,VALID,18.8233,VALID,265,VALID,0.33676,
2001-11-26, 03:16:00,VALID,916.396,VALID,0.2,VALID,98.5557,VALID,0,VALID,18.8007,VALID,258,VALID,0.307366,
2001-11-26, 03:17:00,VALID,916.429,VALID,0,VALID,98.5608,VALID,-0.0169808,VALID,18.7908,VALID,246,VALID,0.20633,
2001-11-26, 03:18:00,VALID,916.458,VALID,0,VALID,98.6091,VALID,0,VALID,18.7846,VALID,294,VALID,0.152778,
2001-11-26, 03:19:00,VALID,916.47,VALID,0,VALID,98.6625,VALID,-0.0339617,VALID,18.8042,VALID,29,VALID,0.64337,
2001-11-26, 03:20:00,VALID,916.461,VALID,0,VALID,98.7337,VALID,-0.0169808,VALID,18.8102,VALID,19,VALID,0.64363,
2001-11-26, 03:21:00,VALID,916.451,VALID,0,VALID,98.7554,VALID,-0.0169808,VALID,18.8201,VALID,19,VALID,0.865543,
2001-11-26, 03:22:00,VALID,916.43,VALID,0.2,VALID,98.8049,VALID,-0.0339617,VALID,18.8524,VALID,13,VALID,0.597039,
2001-11-26, 03:23:00,VALID,916.418,VALID,0,VALID,98.8215,VALID,-0.0339617,VALID,18.8658,VALID,25,VALID,0.693412,
2001-11-26, 03:24:00,VALID,916.42,VALID,0,VALID,98.8253,VALID,0,VALID,18.8556,VALID,24,VALID,0.366753,
2001-11-26, 03:25:00,VALID,916.425,VALID,0.2,VALID,98.824,VALID,-0.0509425,VALID,18.8658,VALID,24,VALID,0.000844595,
2001-11-26, 03:26:00,VALID,916.437,VALID,0,VALID,98.8316,VALID,-0.0339617,VALID,18.8494,VALID,24,VALID,0,
2001-11-26, 03:27:00,VALID,916.412,VALID,0,VALID,98.8329,VALID,-0.0339617,VALID,18.8362,VALID,25,VALID,0.0172276,
2001-11-26, 03:28:00,VALID,916.365,VALID,0.2,VALID,98.8494,VALID,-0.0339617,VALID,18.8434,VALID,33,VALID,0.342147,
2001-11-26, 03:29:00,VALID,916.32,VALID,0,VALID,98.8749,VALID,-0.0509425,VALID,18.8432,VALID,10,VALID,0.505279,
2001-11-26, 03:30:00,VALID,916.287,VALID,0,VALID,98.8584,VALID,-0.0169808,VALID,18.8072,VALID,13,VALID,0.562089,
2001-11-26, 03:31:00,VALID,916.279,VALID,0,VALID,98.8215,VALID,-0.0339617,VALID,18.7811,VALID,10,VALID,0.298878,
2001-11-26, 03:32:00,VALID,916.259,VALID,0.2,VALID,98.8431,VALID,0,VALID,18.785,VALID,12,VALID,0.541066,
2001-11-26, 03:33:00,VALID,916.262,VALID,0,VALID,98.866,VALID,-0.0339617,VALID,18.7682,VALID,10,VALID,0.605239,
2001-11-26, 03:34:00,VALID,916.276,VALID,0,VALID,98.8876,VALID,0,VALID,18.7684,VALID,6,VALID,0.333676,
2001-11-26, 03:35:00,VALID,916.285,VALID,0,VALID,98.9092,VALID,0,VALID,18.7645,VALID,6,VALID,0.39886,
2001-11-26, 03:36:00,VALID,916.283,VALID,0,VALID,98.8927,VALID,0.0169808,VALID,18.752,VALID,4,VALID,0.628906,
2001-11-26, 03:37:00,VALID,916.282,VALID,0,VALID,98.894,VALID,0.0169808,VALID,18.7324,VALID,335,VALID,0.163628,